{"data":{"norad_id":59497,"epoch":"2026-05-24T16:35:22.009344Z","epoch_age_seconds":101887,"freshness":"FRESH","line1":"1 59497U 24071P   26144.69122696 -.00000259  00000+0  11067-6 0  9993","line2":"2 59497  43.0011 270.9989 0001399 273.6425  86.4266 15.27578969119822","mean_motion":15.27578969,"eccentricity":0.0001399,"inclination_deg":43.0011,"raan_deg":270.9989,"arg_perigee_deg":273.6425,"mean_anomaly_deg":86.4266,"bstar":1.1067e-7,"rev_number":11982,"period_min":94.266812336561,"perigee_km":482.09230285956,"apogee_km":484.01206359302,"semimajor_km":6861.1891832263,"source":"CELESTRAK","updated_at":"2026-05-25T13:38:18.955268Z"}}